Location: Orange Harbor Mobile Home Park
(26.6923°N, 81.7937°W)
Time: 08:34:58
(UTC+00:00)

Chunghua 1 - Pass Details

Date: 19 September 2020
Orbit: 458 x 490 km, 34.9° (Epoch: 29 October)

Event Time Altitude Azimuth Distance (km) Brightness Sun altitude
Rises 00:24:18 0° 296° (WNW) 2,494 9.7 -13.5°
Reaches altitude 10° 00:26:30 10° 298° (WNW) 1,611 8.4 -14.0°
Maximum altitude 00:30:10 71° 23° (NNE) 488 4.4 -14.8°
Enters shadow 00:31:46 31° 101° (E) 826 5.1 -15.1°
